Location: Seattle
(47.6064°N, 122.3308°W)
Time: 00:15:07
(UTC-08:00)

Envisat - Pass Details

Date: 28 October 2020
Orbit: 764 x 766 km, 98.1° (Epoch: 03 December)

Event Time Altitude Azimuth Distance (km) Brightness Sun altitude
Rises 18:59:44 0° 191° (SSW) 3,220 6.5 -11.1°
Reaches altitude 10° 19:02:15 10° 202° (SSW) 2,299 5.9 -11.5°
Maximum altitude 19:06:47 32° 265° (W) 1,289 5.0 -12.3°
Drops below altitude 10° 19:11:21 10° 328° (NNW) 2,314 5.8 -13.0°
Sets 19:13:54 0° 339° (NNW) 3,245 6.5 -13.5°
